Theta_e
314 320 323 324 326 327 327 328 330 331 330 326 324 322 320 319 318 314 303 300 296 296 295 294 294 294 294 294 293 293 293 292 292 292 291 290 290 290 290 290 290 289 288
313 317 321 321 323 325 326 327 329 330 331 327 325 323 319 319 317 307 301 298 296 295 294 294 294 293 293 293 293 293 292 292 292 291 291 290 289 289 290 290 289 288 287
314 318 320 322 324 325 324 327 326 328 330 327 325 323 319 319 313 302 299 296 295 294 294 294 293 293 293 293 293 292 292 292 291 291 290 290 289 289 289 290 289 288 287
314 316 317 318 319 319 317 322 318 326 327 326 324 321 319 317 306 300 297 295 294 294 293 293 293 293 293 292 292 292 292 292 291 291 290 290 289 288 289 289 289 288 287
312 312 312 312 311 311 313 315 319 324 324 323 322 318 317 313 301 298 295 294 294 293 293 293 293 292 292 292 292 292 292 291 291 290 290 289 288 288 288 289 289 288 287
311 311 311 311 311 311 311 316 321 324 324 322 318 317 314 303 298 295 294 294 293 293 293 292 292 292 292 292 292 291 292 291 290 290 289 288 288 288 288 288 288 288 287
311 311 311 311 311 310 317 320 321 321 322 318 317 314 306 299 296 294 293 293 293 292 292 292 291 291 291 291 291 291 291 290 290 289 288 288 287 288 287 287 288 288 287
311 312 312 315 314 317 317 319 320 321 319 316 316 310 299 296 294 293 293 292 292 292 291 291 291 291 291 291 290 291 290 290 289 288 288 288 287 287 287 287 287 288 287
311 312 313 314 317 318 318 318 316 317 315 312 309 301 297 295 293 293 292 291 291 291 291 291 291 292 291 290 290 290 290 289 289 288 288 288 287 287 287 287 287 287 286
310 311 312 313 315 316 317 317 316 314 313 308 300 296 295 293 293 292 291 291 291 290 290 290 292 291 290 290 289 289 289 288 288 288 288 287 287 287 287 286 286 286 286
310 311 312 312 314 315 316 316 315 312 307 298 296 294 293 292 292 291 290 290 290 290 290 291 294 292 289 289 289 289 288 288 288 287 287 287 287 286 287 286 286 286 286
309 309 311 312 312 313 313 314 312 308 299 295 294 292 292 291 291 290 290 290 289 289 294 295 293 289 289 288 288 288 288 287 287 287 286 286 286 286 286 286 286 286 286
307 308 308 310 311 312 312 311 307 299 295 294 293 292 291 290 290 290 289 289 291 294 296 295 288 288 288 288 288 287 287 286 286 286 286 286 286 286 286 286 286 286 286
306 306 307 307 309 310 308 305 301 297 294 293 292 291 290 289 289 289 291 293 295 297 297 290 288 287 287 287 287 286 286 285 285 285 285 285 285 285 285 285 285 285 285
306 305 304 304 305 306 304 301 297 295 294 294 292 291 290 289 289 292 295 297 297 297 292 287 287 287 287 286 286 285 285 285 284 284 284 284 284 284 285 285 285 284 284
303 303 303 302 302 301 299 296 293 292 291 291 289 288 288 289 294 297 297 297 296 293 287 286 286 286 286 285 285 285 284 284 284 284 283 283 283 284 284 284 284 284 284
301 300 300 300 300 299 296 294 293 291 289 288 287 287 290 295 297 296 295 295 294 287 287 286 286 285 285 285 284 284 284 283 283 283 283 282 282 282 283 283 283 283 283
299 298 297 297 297 297 295 293 292 290 289 288 287 287 293 296 295 295 294 295 290 287 286 286 285 284 284 284 283 283 283 283 282 282 282 282 281 282 281 282 282 282 282
297 296 295 295 295 294 293 292 290 289 289 288 288 290 296 295 294 294 295 291 287 286 285 284 284 283 283 283 282 282 282 282 281 281 281 281 281 281 281 281 281 281 281
295 295 294 293 293 293 291 289 288 288 288 288 289 293 294 295 294 293 292 290 285 285 284 283 283 282 282 281 281 281 281 280 280 280 280 280 280 280 280 280 280 280 279
294 293 292 291 291 290 289 289 288 288 288 289 292 294 294 293 293 292 286 284 287 286 283 282 282 281 280 280 280 280 279 279 279 279 279 279 278 278 278 279 279 278 278
292 291 290 289 289 289 289 289 289 288 288 291 293 292 290 289 289 284 283 284 284 286 283 281 280 280 279 279 279 278 278 278 278 278 277 277 277 277 277 277 277 277 277
289 289 287 287 287 286 285 284 284 285 289 289 289 288 287 285 282 281 281 283 286 284 282 280 279 279 278 278 277 277 276 276 277 276 276 276 276 276 275 275 276 275 275
289 287 286 285 285 284 284 284 288 288 288 287 286 284 282 280 280 280 280 283 283 280 278 278 278 277 277 277 276 276 276 276 276 275 274 275 275 274 274 274 274 274 274
288 287 286 285 285 286 285 286 286 286 285 284 283 282 280 279 279 279 281 281 279 278 277 277 277 276 276 275 275 275 275 275 274 274 273 273 273 273 273 273 273 273 273
286 286 285 285 284 282 282 283 283 282 282 281 280 279 279 279 279 279 278 277 277 276 276 276 275 275 275 275 274 274 274 274 274 273 273 273 272 272 272 272 272 272 272
Wind_Speed
46 47 47 46 45 42 42 39 37 36 37 34 30 28 25 22 23 23 22 19 16 14 11 8 7 5 3 6 9 12 15 16 18 21 23 25 25 26 25 23 24 23 21
45 45 45 43 41 41 40 39 38 38 40 35 32 29 26 23 24 26 23 20 18 15 12 10 9 6 4 6 9 11 15 18 20 21 23 25 24 24 22 22 21 20 17
43 42 42 40 39 39 39 37 37 38 41 38 34 32 28 26 29 28 24 21 18 15 12 12 10 7 6 7 9 11 14 17 20 22 22 22 22 22 20 17 19 17 13
38 38 40 39 40 40 37 39 35 39 43 39 36 33 28 29 31 28 25 22 18 16 14 13 10 8 7 8 9 11 14 18 19 21 22 21 21 21 19 18 16 14 12
35 36 37 38 38 37 38 35 36 39 45 34 36 30 30 32 32 29 25 21 18 17 15 14 11 8 8 8 10 12 15 18 20 21 21 21 21 20 19 16 16 15 13
31 33 35 35 35 35 36 36 38 40 43 39 30 31 36 34 31 27 24 21 19 17 15 13 11 9 9 9 10 12 16 18 20 20 21 21 21 19 16 16 16 16 13
30 31 31 30 31 30 31 35 39 44 36 34 33 33 35 33 30 26 24 21 19 18 16 13 11 10 11 11 12 14 16 18 20 21 20 19 20 17 16 13 14 16 16
25 25 24 26 26 30 32 38 42 39 40 38 34 36 36 32 29 27 24 22 20 18 16 13 11 10 11 13 14 15 16 17 18 18 20 19 19 17 16 16 15 17 17
25 24 25 26 29 32 35 39 42 42 37 35 37 38 35 32 29 27 24 22 20 18 16 13 11 11 14 15 16 16 17 17 18 19 20 21 20 17 17 17 15 17 17
24 24 25 28 29 31 33 35 38 37 37 37 37 35 33 31 28 26 24 23 21 19 16 13 11 15 19 18 18 18 18 17 19 19 18 19 20 19 17 17 17 17 17
23 24 25 26 30 32 34 36 37 39 37 38 37 35 33 31 29 26 24 22 20 18 15 11 13 22 20 20 20 19 19 19 20 21 20 19 19 20 19 17 19 19 18
24 24 25 27 30 34 36 38 40 39 40 40 38 36 34 32 29 26 23 21 18 15 11 11 21 22 22 21 21 21 21 21 21 21 21 20 19 19 19 18 19 21 21
24 25 25 27 31 35 38 40 41 41 42 41 39 37 35 33 29 25 22 19 15 10 13 17 23 22 23 23 22 22 22 20 21 22 22 22 21 20 19 19 20 22 23
17 23 26 28 30 33 36 38 40 43 43 41 39 38 34 31 27 24 21 15 12 14 18 23 24 23 23 23 22 21 21 21 22 23 23 23 22 21 21 22 23 24 25
16 20 25 29 31 33 37 39 41 41 41 40 38 34 32 30 25 19 14 15 14 21 22 25 23 23 23 22 22 21 21 21 22 23 23 24 24 23 22 22 24 25 28
15 17 22 27 33 36 39 42 42 39 37 34 31 28 26 21 20 19 16 15 26 25 26 24 24 23 22 22 22 21 20 21 21 22 22 22 23 23 23 22 24 27 29
13 16 19 24 31 36 41 42 41 40 37 32 29 27 28 25 22 15 17 29 29 26 26 25 25 24 23 23 23 22 21 20 21 21 22 21 22 23 24 23 23 27 29
12 13 15 19 25 31 37 40 41 39 36 33 32 32 28 24 20 26 33 28 27 29 27 27 25 24 24 23 23 22 22 21 21 21 21 21 22 23 23 23 23 25 28
10 11 13 15 19 24 32 38 37 33 30 31 32 32 28 29 33 35 34 26 29 29 28 26 26 25 24 23 23 22 22 21 21 21 21 22 21 22 23 22 24 26 28
7 8 10 12 14 20 26 30 31 30 29 29 30 32 34 32 35 37 27 29 28 26 27 27 26 25 24 24 23 23 22 21 21 21 22 22 22 22 23 23 23 24 25
7 7 6 8 11 13 17 22 25 27 28 30 34 34 33 38 37 28 28 26 27 29 29 28 27 26 25 24 23 22 21 20 21 21 21 21 22 22 21 22 23 23 24
5 5 7 8 8 12 17 20 23 27 31 34 36 36 33 32 28 27 28 28 26 31 30 30 29 26 25 24 24 22 21 21 21 21 20 20 20 20 20 20 21 21 21
6 6 6 7 9 12 17 22 25 27 30 30 30 29 28 25 26 27 27 28 34 33 30 30 28 26 26 25 24 23 22 21 21 21 20 20 20 20 19 19 19 19 20
8 8 9 9 11 14 17 20 23 25 25 26 26 24 25 28 29 29 30 32 33 29 29 29 28 27 26 25 25 25 24 22 22 21 22 21 20 20 19 19 19 18 19
10 11 13 14 16 19 22 25 28 31 31 29 28 27 27 28 28 30 32 33 32 30 29 29 29 28 25 24 24 25 25 24 23 22 23 24 22 21 20 20 19 19 19
13 14 15 17 20 22 24 26 26 27 26 25 26 27 28 30 32 32 31 30 30 30 30 30 29 29 28 27 24 25 25 25 24 24 25 24 25 24 22 22 20 20 20
Wind_Direction
233 234 235 238 239 238 238 237 235 233 232 232 230 229 225 237 236 224 215 218 221 223 229 236 234 236 277 323 335 338 341 343 340 338 339 344 348 351 351 350 352 356 3
230 231 235 236 237 237 236 236 233 230 228 229 226 223 222 238 234 214 215 217 219 223 228 230 224 226 264 307 322 329 334 337 336 337 338 341 344 347 351 346 353 354 359
228 228 232 235 234 235 236 234 232 230 220 222 223 219 221 239 221 211 214 215 219 223 226 227 220 233 273 299 312 323 330 334 334 333 336 336 341 342 348 345 343 349 355
228 228 231 233 235 235 236 233 231 225 225 215 220 215 228 226 214 212 214 214 218 223 226 226 225 238 268 293 307 318 327 331 333 333 334 334 337 339 339 340 341 341 344
228 230 234 235 236 236 234 231 225 221 218 228 211 219 225 214 211 212 212 214 220 224 225 224 230 247 271 287 302 319 326 328 329 331 328 328 332 333 335 333 330 333 332
234 237 239 238 235 231 230 222 220 214 210 208 215 231 214 209 210 211 212 216 221 223 224 227 240 255 268 283 299 315 321 325 326 324 323 321 325 323 325 321 323 321 332
240 242 240 233 226 224 215 217 219 203 207 213 225 217 209 209 209 209 214 218 220 222 225 230 244 261 278 288 301 311 316 321 322 320 314 314 313 316 313 308 306 310 308
237 236 232 224 222 216 216 218 201 214 211 213 217 208 208 210 209 211 216 219 220 222 226 233 245 265 278 291 299 306 309 313 316 314 305 306 309 309 306 302 297 298 302
234 232 227 222 222 219 210 213 220 209 211 213 209 207 208 210 210 213 217 219 221 225 228 233 249 278 282 287 294 299 304 308 312 315 310 308 307 304 297 289 286 291 300
234 233 229 222 223 223 222 219 215 213 218 210 208 208 211 212 212 215 217 219 224 226 228 238 263 278 277 282 289 295 301 306 309 309 305 305 302 300 291 279 274 279 286
234 231 231 226 224 225 223 221 219 218 211 209 209 210 211 212 215 216 218 221 225 226 232 250 271 268 273 281 288 294 299 303 303 304 304 301 301 296 289 278 267 270 274
242 234 232 230 226 224 225 222 219 216 211 209 210 211 212 214 216 217 218 220 221 224 241 264 265 270 276 281 286 291 295 300 301 302 299 298 296 296 289 280 267 266 269
249 242 234 231 228 227 226 221 216 212 212 212 212 214 215 215 216 216 215 216 216 229 257 265 268 271 275 278 283 286 292 294 296 296 296 294 293 291 283 277 270 267 269
254 254 247 239 233 228 225 222 219 217 215 216 217 216 216 216 216 212 209 208 222 262 274 261 265 268 271 274 276 280 285 288 290 292 292 292 291 288 280 272 269 269 270
246 245 243 239 233 228 224 222 221 223 225 224 223 223 220 218 213 206 211 234 261 280 254 261 265 267 268 269 273 278 282 285 287 288 288 289 287 284 282 275 271 270 269
256 250 245 240 233 227 224 221 221 224 227 226 226 226 220 208 205 218 234 268 278 253 263 264 264 265 267 269 273 275 278 280 282 285 286 286 283 280 278 274 271 268 269
258 254 251 245 238 232 226 225 223 220 220 220 217 214 207 211 217 235 267 265 252 263 264 264 266 265 267 271 275 279 282 284 285 285 285 286 282 278 275 273 272 273 271
269 260 255 252 247 239 233 229 227 226 222 215 214 212 212 220 242 254 262 251 254 259 262 263 263 265 268 272 275 280 282 284 285 285 285 285 283 281 277 272 271 271 274
283 271 265 259 251 245 238 233 230 226 227 227 224 219 220 238 252 258 259 249 258 260 262 263 265 267 271 274 277 279 281 283 285 287 289 289 287 284 281 278 272 269 271
307 291 277 267 263 252 241 232 227 226 229 230 228 232 242 250 254 264 244 250 257 266 271 268 267 269 271 273 275 277 280 282 286 288 288 288 287 286 285 283 278 276 274
334 314 291 268 262 251 236 227 225 228 229 232 236 242 256 259 255 246 253 257 267 269 271 268 266 267 269 270 273 275 278 281 283 286 289 291 291 289 285 284 283 279 276
350 332 312 289 262 237 226 229 231 233 234 237 244 252 254 252 250 249 251 256 263 268 270 268 265 265 267 269 270 272 275 278 280 283 286 289 290 291 291 289 287 285 280
335 321 303 283 260 243 235 234 234 238 245 260 267 266 260 260 255 252 252 254 263 264 264 264 265 265 265 266 269 272 274 276 277 280 282 284 287 289 290 289 287 284 282
312 300 290 280 272 261 252 248 253 260 268 271 267 268 268 264 263 261 259 265 265 263 264 266 266 264 264 267 269 271 273 273 275 278 281 283 284 286 287 289 288 284 280
304 290 277 268 264 262 261 263 268 274 277 276 272 265 264 266 266 267 273 272 268 264 263 264 266 267 265 266 270 273 275 276 277 276 276 279 281 280 283 284 285 284 281
302 292 284 277 273 270 269 270 271 273 274 273 271 270 268 268 269 270 269 268 266 265 264 263 264 266 268 269 269 269 271 272 273 273 275 276 276 277 278 279 279 279 279